SCP
-0 -0 -0 -0 0 0 0 0 0 0 0 0 0 0 0 0 0 0 0 0 0 0 0 0 0 0 0 0 0 0 0 0 0 0 0 0 0 0
0 -0 0 0 -0 0 0 0 0 0 0 0 0 0 0 0 0 0 0 0 0 0 0 0 0 0 0 0 0 0 0 0 0 0 0 0 0 0
-0 0 0 0 0 0 0 0 0 0 0 0 0 0 0 0 0 0 0 0 0 0 0 0 0 0 0 0 0 0 0 0 0 0 0 0 0 0
-0 0 0 0 0 0 0 0 0 0 0 0 0 0 0 0 0 0 0 0 0 0 0 0 0 0 0 0 0 0 0 0 0 0 0 0 0 0
0 0 -0 -0 0 0 0 0 0 0 0 0 0 0 0 0 0 0 0 0 0 0 0 0 0 0 0 0 0 0 0 0 0 0 0 0 0 0
0 0 0 -0 -0 -0 0 0 0 0 0 0 0 0 0 0 0 0 0 0 0 0 0 0 0 0 0 0 0 0 0 0 0 0 0 0 0 0
0 0 0 0 0 -0 0 0 0 0 0 0 0 0 0 0 0 0 0 0 0 0 0 0 0 0 0 0 0 0 0 0 0 0 0 0 0 0
0 0 0 0 -0 -0 0 0 0 0 0 0 0 0 0 0 0 0 0 0 0 0 0 0 0 0 0 0 0 0 0 -0 0 0 0 0 0 0
0 0 0 0 0 0 0 -0 0 -0 0 0 0 0 0 0 0 0 0 0 0 0 0 0 0 0 0 0 0 0 0 0 0 0 0 0 0 0
0 0 0 0 -0 0 0 0 0 0 0 0 0 0 0 0 0 0 0 0 0 0 0 0 0 0 0 0 0 0 0 0 0 0 0 0 -0 -0
0 0 0 0 -0 -0 -0 0 0 0 0 0 0 0 0 0 0 0 0 0 0 0 0 0 0 0 0 0 0 0 0 0 0 0 0 0 0 0
0 0 0 0 0 0 0 0 0 0 0 0 0 0 0 0 0 0 0 0 0 0 0 0 0 0 0 0 0 0 0 0 0 0 0 0 0 0
0 0 0 0 0 0 0 0 0 0 0 0 0 0 0 0 0 0 0 0 0 0 0 0 0 0 0 0 0 0 0 0 0 0 0 0 0 0
0 0 0 0 0 0 0 0 -0 -0 0 0 0 0 0 0 0 0 0 0 0 0 0 0 0 0 0 0 0 0 0 0 0 0 0 0 0 0
0 0 0 0 0 0 0 0 0 0 0 0 0 0 0 0 -0 0 0 0 0 0 0 0 0 0 0 0 0 0 0 0 0 0 0 0 0 0
0 0 0 0 0 0 0 0 0 0 0 0 0 0 0 -0 -0 0 0 0 0 0 0 0 0 0 0 0 0 0 0 0 0 0 0 0 0 0
0 0 0 0 0 0 0 0 0 0 0 0 0 0 0 0 0 0 0 -0 0 0 0 0 0 0 0 0 0 0 0 0 0 0 0 0 0 0
0 0 0 0 0 0 0 0 0 0 0 0 0 0 0 0 0 0 0 0 0 0 0 0 0 0 0 0 0 0 0 0 0 0 0 0 0 0
0 0 0 0 0 0 0 0 0 0 0 0 0 0 0 0 0 0 0 0 0 0 0 0 0 0 0 0 0 0 0 0 0 0 0 0 0 0
0 0 0 0 0 0 0 0 0 0 0 0 0 0 0 0 0 0 0 0 0 0 0 0 0 0 0 0 0 0 0 0 0 0 0 0 0 0
0 0 0 0 0 0 0 0 0 0 0 0 0 0 0 0 0 0 0 0 0 0 0 0 0 0 0 0 0 0 0 0 0 0 0 0 0 0
0 0 0 0 0 0 0 0 0 0 0 0 0 0 0 0 0 0 0 0 0 0 0 0 0 0 0 0 0 0 0 0 0 0 -0 -0 0 0
0 0 0 0 0 0 0 0 0 0 0 0 0 0 0 0 0 0 0 0 0 0 0 0 0 0 0 0 0 0 0 0 0 0 0 -0 -0 -0
Wind_Speed_500mb
12 9 10 6 12 19 26 22 24 10 19 23 15 14 23 30 27 28 30 29 28 34 37 43 44 43 41 41 38 37 37 36 38 33 24 27 40 42
15 15 18 13 11 11 18 27 20 25 17 22 21 22 21 22 33 26 33 37 35 37 37 39 37 35 34 35 35 35 36 37 39 40 40 43 45 47
17 17 18 17 15 11 12 18 23 26 30 30 20 17 29 24 28 19 36 31 34 43 41 42 39 38 37 36 35 35 37 39 39 39 43 44 43 48
21 16 13 16 20 18 13 13 20 24 32 42 36 34 25 25 27 39 35 37 34 41 43 36 38 42 40 39 42 44 44 44 44 44 45 47 44 46
34 24 22 15 14 21 19 18 19 16 21 28 33 32 34 31 30 29 43 47 29 40 44 41 40 43 43 41 41 40 42 45 42 44 46 47 49 50
29 39 24 19 12 19 20 26 13 18 20 25 32 34 30 27 36 36 34 31 39 40 36 39 48 46 43 43 44 43 47 48 48 47 48 48 51 54
38 38 43 19 20 22 17 17 22 26 27 26 23 33 37 31 33 37 39 45 54 49 48 44 39 43 48 46 48 49 53 55 56 58 55 55 58 59
48 38 43 41 13 4 13 3 10 18 26 29 22 28 32 33 31 33 38 41 51 51 49 50 57 56 49 50 49 52 55 59 57 59 57 55 61 64
36 44 44 48 49 7 13 17 21 6 10 9 20 31 33 35 30 36 38 40 39 41 48 57 58 68 63 63 58 57 60 66 65 66 62 59 64 65
40 35 42 42 39 43 27 16 15 14 16 21 26 24 20 29 35 34 34 39 46 51 55 64 61 68 64 65 62 62 67 71 66 62 65 65 67 68
41 37 37 36 36 40 34 31 24 17 14 17 19 26 31 34 14 31 40 42 47 50 50 53 58 58 57 66 69 65 65 67 69 71 67 65 64 65
37 37 34 36 32 32 35 34 34 28 25 24 20 21 19 16 19 26 35 33 37 42 49 47 54 54 53 57 53 52 59 65 65 69 66 60 68 64
42 44 41 38 35 33 34 35 33 33 31 28 28 31 27 21 18 16 14 23 36 44 45 43 53 54 53 56 55 53 58 67 57 52 58 56 59 58
39 41 43 36 34 29 34 33 25 22 17 19 26 29 36 29 25 22 20 18 19 23 26 37 48 43 48 53 57 62 56 52 45 52 55 56 58 58
37 37 40 36 35 36 33 32 32 29 27 24 23 21 21 24 24 30 30 24 22 22 24 22 27 32 41 42 43 45 30 35 38 43 43 45 47 49
43 36 37 37 38 37 39 37 34 35 34 30 28 27 26 25 24 23 28 24 27 22 22 25 25 27 31 33 36 42 37 38 39 37 39 44 46 47
38 38 43 45 46 46 43 40 41 40 41 35 34 35 31 27 22 22 25 28 31 30 27 24 26 31 34 37 47 49 51 50 47 46 47 52 53 53
44 47 48 48 48 47 46 45 40 40 41 39 37 36 36 29 25 24 24 27 30 30 31 30 31 36 41 45 43 48 45 45 43 49 52 59 66 64
51 49 48 49 49 45 44 42 41 40 39 37 35 36 40 30 29 29 26 26 30 33 33 34 36 35 43 50 45 37 46 49 46 50 52 55 60 62
52 52 50 48 47 46 44 42 40 39 37 37 40 39 36 36 34 33 33 35 34 35 34 30 31 34 39 47 52 50 33 42 43 49 49 49 52 51
48 48 48 48 47 45 43 41 39 39 38 35 35 38 39 37 37 36 37 35 35 35 37 38 34 29 34 37 45 50 43 37 39 44 45 46 48 48
45 46 46 45 46 47 45 43 41 38 37 35 35 34 33 33 38 38 43 50 52 46 40 35 34 31 29 31 38 40 39 34 33 35 38 40 49 42
44 43 44 44 44 47 47 46 43 40 37 34 30 29 27 26 29 35 33 37 46 47 48 53 51 44 37 35 29 30 28 27 29 27 24 24 29 42
Wind_Direction_500mb
4 350 327 324 297 284 258 259 253 311 309 246 279 227 213 226 242 243 233 245 247 229 230 233 234 231 234 239 244 249 253 253 249 236 235 255 250 249
5 344 348 311 312 298 256 260 246 261 290 276 276 265 224 208 220 227 244 245 251 236 234 233 232 235 238 240 244 250 257 261 264 265 264 257 249 245
13 350 333 332 327 311 302 272 255 250 266 263 268 271 254 277 233 229 223 235 249 237 229 232 236 241 246 249 250 252 258 262 263 266 266 265 262 258
331 327 310 335 331 325 293 277 269 262 268 272 273 241 264 278 271 263 250 232 245 238 229 235 247 245 247 253 261 266 264 261 262 263 265 261 266 263
7 325 292 284 308 310 305 309 269 263 267 277 279 276 258 259 275 272 249 234 231 245 244 241 243 240 245 252 259 265 266 265 264 269 267 267 267 266
21 11 350 277 287 305 293 283 280 270 279 272 270 276 280 265 256 266 271 229 228 242 235 247 246 250 250 253 263 276 277 275 274 270 269 267 263 263
32 25 15 349 265 309 301 282 280 274 267 275 277 275 267 272 269 260 254 248 249 245 238 241 246 248 255 255 263 271 278 280 280 277 274 271 269 265
23 28 24 17 344 312 24 60 18 310 252 268 273 283 281 280 266 254 258 262 252 240 242 240 247 255 257 259 266 273 276 277 278 280 274 274 276 275
15 21 22 22 20 342 271 298 320 337 22 261 286 290 285 277 274 273 262 258 254 254 252 254 249 253 252 254 257 264 271 277 280 278 277 277 279 278
9 19 14 16 22 17 12 332 299 287 283 284 284 292 301 281 264 267 267 265 262 261 259 261 255 255 256 256 255 259 263 271 271 272 275 276 281 283
7 11 16 18 14 3 7 18 16 357 336 317 300 293 282 273 276 247 254 262 263 264 263 267 270 273 273 269 262 261 262 263 266 270 270 270 269 274
9 6 21 10 8 10 1 5 4 10 8 4 4 352 341 317 299 273 260 260 259 268 273 266 272 268 274 273 270 266 264 265 263 262 265 264 266 269
3 8 13 6 2 2 4 9 355 342 352 355 348 348 344 345 349 342 316 277 263 263 266 272 274 273 266 270 273 269 270 273 267 256 256 260 261 262
1 9 359 358 2 4 2 1 348 340 331 343 340 342 342 338 337 331 325 324 315 301 290 260 263 260 264 270 271 270 270 272 270 259 258 260 258 260
19 9 2 5 6 6 6 4 2 3 348 326 317 317 325 328 327 321 320 313 307 308 318 311 273 268 263 264 264 266 263 262 262 266 271 267 267 274
16 13 3 11 14 12 13 10 5 4 358 353 348 337 326 305 303 304 310 312 299 296 301 302 309 296 273 272 273 274 271 266 266 263 266 266 269 272
13 17 16 15 15 14 15 15 16 15 10 7 2 356 345 331 316 316 308 305 301 297 289 285 288 287 286 285 278 273 273 269 267 268 268 269 269 269
24 22 18 14 11 7 10 13 15 11 7 9 13 6 358 357 350 329 313 311 310 308 303 301 291 281 282 279 275 285 283 278 275 269 267 271 274 272
28 25 21 15 10 9 9 10 10 13 9 6 7 8 8 8 3 357 344 331 324 317 308 303 299 296 295 293 298 283 281 284 280 273 273 273 274 275
26 22 20 17 14 11 10 8 8 9 10 9 11 10 8 6 3 355 351 344 336 331 329 325 308 299 290 290 297 298 298 286 282 281 283 281 281 279
21 21 19 18 17 15 12 10 7 6 3 3 6 8 12 14 12 10 8 7 357 350 346 342 332 313 301 300 295 304 309 300 293 287 287 284 280 281
21 18 17 18 19 17 14 11 8 6 8 10 12 12 19 26 31 28 29 29 24 18 7 2 5 353 336 316 311 313 315 312 303 288 279 275 271 266
12 14 15 14 16 17 15 13 10 7 5 5 5 12 19 28 27 22 10 3 359 360 5 26 27 23 15 359 347 341 332 321 321 316 305 289 273 264
Wind_Speed_850mb
12 9 10 6 12 19 26 22 24 10 19 23 15 14 23 30 27 28 30 29 28 34 37 43 44 43 41 41 38 37 37 36 38 33 24 27 40 42
15 15 18 13 11 11 18 27 20 25 17 22 21 22 21 22 33 26 33 37 35 37 37 39 37 35 34 35 35 35 36 37 39 40 40 43 45 47
17 17 18 17 15 11 12 18 23 26 30 30 20 17 29 24 28 19 36 31 34 43 41 42 39 38 37 36 35 35 37 39 39 39 43 44 43 48
21 16 13 16 20 18 13 13 20 24 32 42 36 34 25 25 27 39 35 37 34 41 43 36 38 42 40 39 42 44 44 44 44 44 45 47 44 46
34 24 22 15 14 21 19 18 19 16 21 28 33 32 34 31 30 29 43 47 29 40 44 41 40 43 43 41 41 40 42 45 42 44 46 47 49 50
29 39 24 19 12 19 20 26 13 18 20 25 32 34 30 27 36 36 34 31 39 40 36 39 48 46 43 43 44 43 47 48 48 47 48 48 51 54
38 38 43 19 20 22 17 17 22 26 27 26 23 33 37 31 33 37 39 45 54 49 48 44 39 43 48 46 48 49 53 55 56 58 55 55 58 59
48 38 43 41 13 4 13 3 10 18 26 29 22 28 32 33 31 33 38 41 51 51 49 50 57 56 49 50 49 52 55 59 57 59 57 55 61 64
36 44 44 48 49 7 13 17 21 6 10 9 20 31 33 35 30 36 38 40 39 41 48 57 58 68 63 63 58 57 60 66 65 66 62 59 64 65
40 35 42 42 39 43 27 16 15 14 16 21 26 24 20 29 35 34 34 39 46 51 55 64 61 68 64 65 62 62 67 71 66 62 65 65 67 68
41 37 37 36 36 40 34 31 24 17 14 17 19 26 31 34 14 31 40 42 47 50 50 53 58 58 57 66 69 65 65 67 69 71 67 65 64 65
37 37 34 36 32 32 35 34 34 28 25 24 20 21 19 16 19 26 35 33 37 42 49 47 54 54 53 57 53 52 59 65 65 69 66 60 68 64
42 44 41 38 35 33 34 35 33 33 31 28 28 31 27 21 18 16 14 23 36 44 45 43 53 54 53 56 55 53 58 67 57 52 58 56 59 58
39 41 43 36 34 29 34 33 25 22 17 19 26 29 36 29 25 22 20 18 19 23 26 37 48 43 48 53 57 62 56 52 45 52 55 56 58 58
37 37 40 36 35 36 33 32 32 29 27 24 23 21 21 24 24 30 30 24 22 22 24 22 27 32 41 42 43 45 30 35 38 43 43 45 47 49
43 36 37 37 38 37 39 37 34 35 34 30 28 27 26 25 24 23 28 24 27 22 22 25 25 27 31 33 36 42 37 38 39 37 39 44 46 47
38 38 43 45 46 46 43 40 41 40 41 35 34 35 31 27 22 22 25 28 31 30 27 24 26 31 34 37 47 49 51 50 47 46 47 52 53 53
44 47 48 48 48 47 46 45 40 40 41 39 37 36 36 29 25 24 24 27 30 30 31 30 31 36 41 45 43 48 45 45 43 49 52 59 66 64
51 49 48 49 49 45 44 42 41 40 39 37 35 36 40 30 29 29 26 26 30 33 33 34 36 35 43 50 45 37 46 49 46 50 52 55 60 62
52 52 50 48 47 46 44 42 40 39 37 37 40 39 36 36 34 33 33 35 34 35 34 30 31 34 39 47 52 50 33 42 43 49 49 49 52 51
48 48 48 48 47 45 43 41 39 39 38 35 35 38 39 37 37 36 37 35 35 35 37 38 34 29 34 37 45 50 43 37 39 44 45 46 48 48
45 46 46 45 46 47 45 43 41 38 37 35 35 34 33 33 38 38 43 50 52 46 40 35 34 31 29 31 38 40 39 34 33 35 38 40 49 42
44 43 44 44 44 47 47 46 43 40 37 34 30 29 27 26 29 35 33 37 46 47 48 53 51 44 37 35 29 30 28 27 29 27 24 24 29 42
Wind_Direction_850mb
4 350 327 324 297 284 258 259 253 311 309 246 279 227 213 226 242 243 233 245 247 229 230 233 234 231 234 239 244 249 253 253 249 236 235 255 250 249
5 344 348 311 312 298 256 260 246 261 290 276 276 265 224 208 220 227 244 245 251 236 234 233 232 235 238 240 244 250 257 261 264 265 264 257 249 245
13 350 333 332 327 311 302 272 255 250 266 263 268 271 254 277 233 229 223 235 249 237 229 232 236 241 246 249 250 252 258 262 263 266 266 265 262 258
331 327 310 335 331 325 293 277 269 262 268 272 273 241 264 278 271 263 250 232 245 238 229 235 247 245 247 253 261 266 264 261 262 263 265 261 266 263
7 325 292 284 308 310 305 309 269 263 267 277 279 276 258 259 275 272 249 234 231 245 244 241 243 240 245 252 259 265 266 265 264 269 267 267 267 266
21 11 350 277 287 305 293 283 280 270 279 272 270 276 280 265 256 266 271 229 228 242 235 247 246 250 250 253 263 276 277 275 274 270 269 267 263 263
32 25 15 349 265 309 301 282 280 274 267 275 277 275 267 272 269 260 254 248 249 245 238 241 246 248 255 255 263 271 278 280 280 277 274 271 269 265
23 28 24 17 344 312 24 60 18 310 252 268 273 283 281 280 266 254 258 262 252 240 242 240 247 255 257 259 266 273 276 277 278 280 274 274 276 275
15 21 22 22 20 342 271 298 320 337 22 261 286 290 285 277 274 273 262 258 254 254 252 254 249 253 252 254 257 264 271 277 280 278 277 277 279 278
9 19 14 16 22 17 12 332 299 287 283 284 284 292 301 281 264 267 267 265 262 261 259 261 255 255 256 256 255 259 263 271 271 272 275 276 281 283
7 11 16 18 14 3 7 18 16 357 336 317 300 293 282 273 276 247 254 262 263 264 263 267 270 273 273 269 262 261 262 263 266 270 270 270 269 274
9 6 21 10 8 10 1 5 4 10 8 4 4 352 341 317 299 273 260 260 259 268 273 266 272 268 274 273 270 266 264 265 263 262 265 264 266 269
3 8 13 6 2 2 4 9 355 342 352 355 348 348 344 345 349 342 316 277 263 263 266 272 274 273 266 270 273 269 270 273 267 256 256 260 261 262
1 9 359 358 2 4 2 1 348 340 331 343 340 342 342 338 337 331 325 324 315 301 290 260 263 260 264 270 271 270 270 272 270 259 258 260 258 260
19 9 2 5 6 6 6 4 2 3 348 326 317 317 325 328 327 321 320 313 307 308 318 311 273 268 263 264 264 266 263 262 262 266 271 267 267 274
16 13 3 11 14 12 13 10 5 4 358 353 348 337 326 305 303 304 310 312 299 296 301 302 309 296 273 272 273 274 271 266 266 263 266 266 269 272
13 17 16 15 15 14 15 15 16 15 10 7 2 356 345 331 316 316 308 305 301 297 289 285 288 287 286 285 278 273 273 269 267 268 268 269 269 269
24 22 18 14 11 7 10 13 15 11 7 9 13 6 358 357 350 329 313 311 310 308 303 301 291 281 282 279 275 285 283 278 275 269 267 271 274 272
28 25 21 15 10 9 9 10 10 13 9 6 7 8 8 8 3 357 344 331 324 317 308 303 299 296 295 293 298 283 281 284 280 273 273 273 274 275
26 22 20 17 14 11 10 8 8 9 10 9 11 10 8 6 3 355 351 344 336 331 329 325 308 299 290 290 297 298 298 286 282 281 283 281 281 279
21 21 19 18 17 15 12 10 7 6 3 3 6 8 12 14 12 10 8 7 357 350 346 342 332 313 301 300 295 304 309 300 293 287 287 284 280 281
21 18 17 18 19 17 14 11 8 6 8 10 12 12 19 26 31 28 29 29 24 18 7 2 5 353 336 316 311 313 315 312 303 288 279 275 271 266
12 14 15 14 16 17 15 13 10 7 5 5 5 12 19 28 27 22 10 3 359 360 5 26 27 23 15 359 347 341 332 321 321 316 305 289 273 264